Location: Głogów
(51.6590°N, 16.0805°E)
Time: 23:28:21
(UTC+02:00)

ISS - Visible Passes

Search period start: 22 September 2018 00:00
Search period end: 02 October 2018 00:00
Orbit: 403 x 408 km, 51.6° (Epoch: 23 September)

Date Brightness Start Highest point End Pass type
(mag) Time Alt. Az. Time Alt. Az. Time Alt. Az.
22 Sep -1.7 20:27:55 10° S 20:28:53 14° S 20:28:53 14° S visible
23 Sep -1.6 19:37:28 10° SSE 19:38:35 11° SE 19:39:38 10° ESE visible
23 Sep -1.6 21:11:18 10° SW 21:12:21 18° SW 21:12:21 18° SW visible
24 Sep -2.9 20:19:43 10° SSW 20:22:40 30° SSE 20:22:54 30° SE visible
25 Sep -2.2 19:28:24 10° SSW 19:30:56 21° SE 19:33:18 11° E visible
25 Sep -2.7 21:03:46 10° WSW 21:05:59 38° SW 21:05:59 38° SW visible
26 Sep -3.5 20:11:59 10° SW 20:15:12 49° SSE 20:16:15 33° ESE visible
26 Sep -0.9 21:48:18 10° W 21:48:56 15° W 21:48:56 15° W visible
27 Sep -3.0 19:20:19 10° SW 19:23:22 35° SSE 19:26:25 10° E visible
27 Sep -3.3 20:56:22 10° W 20:59:06 58° WSW 20:59:06 58° WSW visible
28 Sep -3.9 20:04:27 10° WSW 20:07:44 72° SSE 20:09:12 30° E visible
28 Sep -1.0 21:40:56 10° W 21:41:52 18° W 21:41:52 18° W visible
29 Sep -3.5 19:12:35 10° WSW 19:15:50 56° SSE 19:19:05 10° E visible
29 Sep -3.5 20:48:58 10° W 20:51:54 67° W 20:51:54 67° W visible
30 Sep -3.9 19:57:00 10° W 20:00:18 89° S 20:01:54 28° E visible
30 Sep -1.1 21:33:31 10° W 21:34:34 19° W 21:34:34 19° W visible
01 Oct -3.8 19:05:02 10° WSW 19:08:20 78° SSE 19:11:39 10° E visible
01 Oct -3.7 20:41:32 10° W 20:44:32 71° W 20:44:32 71° W visible
